User: anonymous   Login
Location: Dennis Manor
(64.8292°N, 147.5397°W)
Time: 17:41:13
(UTC+00:00)
Language:

Envisat - Orbit

View from above orbital plane
View from above orbital plane
View from above satellite
View from above satellite

Ground track
Ground track

The orbit data is extracted from the following two-line orbital elements,

1 27386U 02009A   20330.51565605  .00000051  00000-0  30168-4 0  9996
2 27386  98.1401 329.1199 0001323  90.8882  20.1777 14.38000958981762
Epoch (UTC): 25 November 2020 12:22:32
Eccentricity: 0.0001323
inclination: 98.1401°
perigee height: 764 km
apogee height: 766 km
right ascension of ascending node: 329.1199°
argument of perigee: 90.8882°
revolutions per day: 14.38000958
mean anomaly at epoch: 20.1777°
orbit number at epoch: 98176

The dashed part of the orbit path shows where the satellite is in the earth's shadow,  

DLR